| time (UTC) | temp F | wind direction | speed MPH | gust MPH | rain 1hr in | rain 24hr in | rain mn in | humidity % | barometer mb |
| 20260831174504 | 61 | 120 | 2.0 | 6.0 | 0.00 | 0.18 | 0.02 | 94 | 1002.3 |
| 20260831173604 | 61 | 123 | 2.0 | 6.0 | 0.00 | 0.18 | 0.02 | 94 | 1002.4 |
| 20260831172704 | 61 | 124 | 3.0 | 7.0 | 0.00 | 0.18 | 0.02 | 94 | 1002.5 |
| 20260831171804 | 62 | 126 | 3.0 | 6.0 | 0.00 | 0.18 | 0.02 | 94 | 1002.5 |
| 20260831170904 | 62 | 124 | 3.0 | 6.0 | 0.00 | 0.18 | 0.02 | 93 | 1002.4 |
| 20260831170004 | 62 | 119 | 2.0 | 6.0 | 0.00 | 0.18 | 0.02 | 93 | 1002.5 |
| 20260831165404 | 62 | 127 | 2.0 | 5.0 | 0.00 | 0.18 | 0.02 | 93 | 1002.5 |
| 20260831164504 | 62 | 124 | 3.0 | 6.0 | 0.00 | 0.18 | 0.02 | 93 | 1002.4 |
| 20260831163625 | 62 | 129 | 2.0 | 6.0 | 0.00 | 0.18 | 0.02 | 93 | 1002.4 |
| 20260831162704 | 62 | 143 | 2.0 | 4.0 | 0.00 | 0.18 | 0.02 | 92 | 1002.4 |
| 20260831161804 | 62 | 120 | 3.0 | 7.0 | 0.00 | 0.18 | 0.02 | 92 | 1002.4 |
| 20260831160904 | 62 | 111 | 3.0 | 8.0 | 0.00 | 0.18 | 0.02 | 93 | 1002.5 |
| 20260831160004 | 62 | 118 | 3.0 | 6.0 | 0.00 | 0.18 | 0.02 | 93 | 1002.5 |
| 20260831155404 | 62 | 122 | 2.0 | 5.0 | 0.00 | 0.18 | 0.02 | 92 | 1002.6 |
| 20260831154504 | 62 | 120 | 3.0 | 6.0 | 0.00 | 0.18 | 0.02 | 92 | 1002.6 |
| 20260831153604 | 62 | 124 | 2.0 | 6.0 | 0.00 | 0.18 | 0.02 | 92 | 1002.6 |
| 20260831152725 | 62 | 128 | 2.0 | 6.0 | 0.00 | 0.18 | 0.02 | 92 | 1002.6 |
| 20260831151804 | 62 | 144 | 4.0 | 7.0 | 0.00 | 0.18 | 0.02 | 92 | 1002.6 |
| 20260831150904 | 62 | 139 | 4.0 | 8.0 | 0.00 | 0.18 | 0.02 | 91 | 1002.7 |
| 20260831150025 | 63 | 133 | 4.0 | 8.0 | 0.00 | 0.18 | 0.02 | 91 | 1002.7 |
| 20260831145425 | 63 | 130 | 4.0 | 11.0 | 0.00 | 0.18 | 0.02 | 91 | 1002.7 |
| 20260831144525 | 63 | 143 | 3.0 | 9.0 | 0.00 | 0.18 | 0.02 | 91 | 1002.7 |
| 20260831143604 | 63 | 142 | 2.0 | 5.0 | 0.00 | 0.18 | 0.02 | 92 | 1002.8 |
| 20260831142704 | 63 | 150 | 3.0 | 8.0 | 0.00 | 0.18 | 0.02 | 92 | 1002.8 |
| 20260831141804 | 63 | 135 | 3.0 | 6.0 | 0.00 | 0.18 | 0.02 | 92 | 1002.8 |
| 20260831140904 | 63 | 117 | 3.0 | 7.0 | 0.00 | 0.18 | 0.02 | 92 | 1002.8 |
| 20260831140004 | 62 | 138 | 2.0 | 5.0 | 0.00 | 0.18 | 0.02 | 93 | 1002.8 |
| 20260831135404 | 62 | 153 | 3.0 | 5.0 | 0.00 | 0.18 | 0.02 | 93 | 1002.9 |
| 20260831134504 | 62 | 159 | 2.0 | 4.0 | 0.00 | 0.18 | 0.02 | 93 | 1002.9 |
| 20260831133604 | 62 | 158 | 3.0 | 7.0 | 0.00 | 0.18 | 0.02 | 93 | 1002.9 |
| 20260831132725 | 62 | 144 | 5.0 | 9.0 | 0.00 | 0.18 | 0.02 | 93 | 1002.9 |
| 20260831131804 | 62 | 150 | 4.0 | 9.0 | 0.00 | 0.18 | 0.02 | 93 | 1003.0 |
| 20260831130904 | 62 | 142 | 3.0 | 7.0 | 0.00 | 0.18 | 0.02 | 94 | 1003.0 |
| 20260831130004 | 62 | 134 | 3.0 | 7.0 | 0.00 | 0.18 | 0.02 | 94 | 1003.1 |
| 20260831125404 | 62 | 132 | 3.0 | 7.0 | 0.00 | 0.18 | 0.02 | 95 | 1003.1 |
| 20260831124504 | 61 | 127 | 2.0 | 6.0 | 0.00 | 0.18 | 0.02 | 95 | 1003.2 |
| 20260831123604 | 61 | 131 | 3.0 | 7.0 | 0.00 | 0.18 | 0.02 | 95 | 1003.2 |
| 20260831122704 | 61 | 135 | 3.0 | 6.0 | 0.00 | 0.18 | 0.02 | 95 | 1003.2 |
| 20260831121804 | 61 | 142 | 3.0 | 6.0 | 0.00 | 0.18 | 0.02 | 95 | 1003.3 |
| 20260831120904 | 61 | 130 | 3.0 | 6.0 | 0.00 | 0.18 | 0.02 | 95 | 1003.2 |
| 20260831120004 | 60 | 123 | 3.0 | 7.0 | 0.00 | 0.18 | 0.02 | 94 | 1003.2 |
| 20260831115425 | 61 | 125 | 3.0 | 7.0 | 0.00 | 0.18 | 0.02 | 94 | 1003.3 |
| 20260831114504 | 61 | 127 | 2.0 | 4.0 | 0.00 | 0.18 | 0.02 | 95 | 1003.3 |
| 20260831113604 | 60 | 126 | 3.0 | 5.0 | 0.00 | 0.18 | 0.02 | 94 | 1003.4 |
| 20260831112725 | 60 | 132 | 3.0 | 8.0 | 0.00 | 0.18 | 0.02 | 94 | 1003.4 |
| 20260831111825 | 60 | 130 | 4.0 | 8.0 | 0.01 | 0.18 | 0.02 | 94 | 1003.4 |
| 20260831110904 | 60 | 132 | 4.0 | 8.0 | 0.01 | 0.18 | 0.02 | 94 | 1003.4 |
| 20260831110004 | 60 | 131 | 5.0 | 9.0 | 0.01 | 0.18 | 0.02 | 94 | 1003.4 |
| 20260831105404 | 60 | 129 | 4.0 | 8.0 | 0.01 | 0.18 | 0.02 | 94 | 1003.5 |
| 20260831104504 | 60 | 108 | 2.0 | 3.0 | 0.01 | 0.18 | 0.02 | 94 | 1003.5 |
| 20260831103604 | 60 | 101 | 1.0 | 6.0 | 0.01 | 0.18 | 0.02 | 93 | 1003.5 |
| 20260831102704 | 60 | 112 | 2.0 | 6.0 | 0.01 | 0.18 | 0.02 | 93 | 1003.5 |
| 20260831101804 | 60 | 133 | 3.0 | 8.0 | 0.00 | 0.17 | 0.01 | 92 | 1003.6 |
| 20260831100904 | 60 | 151 | 7.0 | 12.0 | 0.00 | 0.17 | 0.01 | 92 | 1003.6 |
| 20260831100004 | 60 | 138 | 6.0 | 13.0 | 0.00 | 0.17 | 0.01 | 92 | 1003.6 |
| 20260831095404 | 61 | 143 | 4.0 | 11.0 | 0.00 | 0.17 | 0.01 | 92 | 1003.6 |
| 20260831094504 | 61 | 142 | 5.0 | 10.0 | 0.00 | 0.17 | 0.01 | 91 | 1003.5 |
| 20260831093604 | 61 | 145 | 6.0 | 14.0 | 0.00 | 0.17 | 0.01 | 91 | 1003.5 |
| 20260831092704 | 61 | 147 | 7.0 | 14.0 | 0.00 | 0.17 | 0.01 | 91 | 1003.5 |
| 20260831091804 | 61 | 153 | 5.0 | 10.0 | 0.00 | 0.17 | 0.01 | 92 | 1003.4 |
| 20260831090904 | 61 | 147 | 4.0 | 9.0 | 0.00 | 0.17 | 0.01 | 93 | 1003.5 |
| 20260831090004 | 60 | 137 | 3.0 | 8.0 | 0.00 | 0.18 | 0.01 | 93 | 1003.5 |
| 20260831085404 | 60 | 143 | 5.0 | 10.0 | 0.00 | 0.18 | 0.01 | 92 | 1003.4 |
| 20260831084504 | 60 | 141 | 6.0 | 12.0 | 0.00 | 0.18 | 0.01 | 92 | 1003.5 |
| 20260831083604 | 60 | 145 | 6.0 | 13.0 | 0.00 | 0.18 | 0.01 | 93 | 1003.6 |
| 20260831082704 | 60 | 147 | 5.0 | 10.0 | 0.00 | 0.18 | 0.01 | 94 | 1003.6 |
| 20260831081804 | 60 | 145 | 4.0 | 9.0 | 0.00 | 0.18 | 0.01 | 94 | 1003.6 |
| 20260831080904 | 60 | 147 | 5.0 | 9.0 | 0.00 | 0.18 | 0.01 | 94 | 1003.6 |
| 20260831080004 | 60 | 148 | 4.0 | 7.0 | 0.00 | 0.18 | 0.01 | 95 | 1003.6 |
| 20260831075404 | 60 | 153 | 4.0 | 8.0 | 0.00 | 0.18 | 0.01 | 95 | 1003.6 |
| 20260831074504 | 60 | 148 | 4.0 | 7.0 | 0.00 | 0.18 | 0.01 | 95 | 1003.7 |
| 20260831073604 | 59 | 150 | 3.0 | 7.0 | 0.00 | 0.18 | 0.01 | 96 | 1003.7 |
| 20260831072704 | 59 | 149 | 4.0 | 7.0 | 0.00 | 0.18 | 0.01 | 96 | 1003.8 |
| 20260831071825 | 59 | 152 | 5.0 | 8.0 | 0.00 | 0.18 | 0.01 | 96 | 1003.8 |
| 20260831070904 | 58 | 155 | 5.0 | 9.0 | 0.00 | 0.19 | 0.01 | 96 | 1003.8 |
| 20260831070004 | 58 | 149 | 4.0 | 8.0 | 0.00 | 0.19 | 0.01 | 96 | 1003.8 |
| 20260831065404 | 58 | 151 | 3.0 | 7.0 | 0.00 | 0.19 | 0.01 | 96 | 1003.8 |
| 20260831064504 | 58 | 160 | 5.0 | 10.0 | 0.00 | 0.20 | 0.01 | 96 | 1003.8 |
| 20260831063604 | 58 | 166 | 5.0 | 12.0 | 0.00 | 0.20 | 0.01 | 96 | 1003.9 |
| 20260831062704 | 58 | 154 | 4.0 | 8.0 | 0.00 | 0.20 | 0.01 | 97 | 1003.8 |
| 20260831061825 | 58 | 154 | 4.0 | 10.0 | 0.00 | 0.21 | 0.01 | 97 | 1003.8 |
| 20260831060904 | 58 | 155 | 6.0 | 11.0 | 0.00 | 0.23 | 0.01 | 96 | 1003.8 |
| 20260831060004 | 58 | 152 | 4.0 | 8.0 | 0.00 | 0.24 | 0.01 | 97 | 1003.9 |
| 20260831055404 | 58 | 140 | 3.0 | 7.0 | 0.00 | 0.25 | 0.01 | 97 | 1003.9 |
| 20260831054504 | 58 | 153 | 4.0 | 7.0 | 0.00 | 0.25 | 0.01 | 97 | 1003.9 |
| 20260831053604 | 58 | 163 | 4.0 | 8.0 | 0.00 | 0.26 | 0.01 | 97 | 1003.9 |
| 20260831052725 | 58 | 146 | 3.0 | 7.0 | 0.00 | 0.27 | 0.01 | 97 | 1003.9 |
| 20260831051804 | 58 | 139 | 2.0 | 6.0 | 0.00 | 0.27 | 0.01 | 97 | 1003.9 |
| 20260831050904 | 58 | 138 | 3.0 | 4.0 | 0.00 | 0.27 | 0.01 | 97 | 1003.9 |
| 20260831050004 | 57 | 148 | 4.0 | 6.0 | 0.00 | 0.27 | 0.01 | 96 | 1003.9 |
| 20260831045404 | 57 | 149 | 3.0 | 6.0 | 0.00 | 0.27 | 0.01 | 97 | 1003.9 |
| 20260831044504 | 57 | 147 | 3.0 | 6.0 | 0.00 | 0.27 | 0.01 | 97 | 1003.9 |
| 20260831043604 | 57 | 143 | 3.0 | 5.0 | 0.00 | 0.27 | 0.01 | 97 | 1003.9 |
| 20260831042704 | 57 | 144 | 2.0 | 4.0 | 0.00 | 0.27 | 0.01 | 97 | 1003.9 |
| 20260831041804 | 57 | 146 | 3.0 | 6.0 | 0.00 | 0.27 | 0.01 | 97 | 1004.0 |
| 20260831040004 | 57 | 141 | 4.0 | 7.0 | 0.00 | 0.27 | 0.01 | 96 | 1004.0 |
| 20260831035404 | 57 | 145 | 3.0 | 7.0 | 0.00 | 0.27 | 0.01 | 97 | 1004.0 |
| 20260831034504 | 57 | 142 | 3.0 | 7.0 | 0.00 | 0.27 | 0.01 | 96 | 1003.9 |
| 20260831033604 | 57 | 143 | 3.0 | 6.0 | 0.00 | 0.27 | 0.01 | 96 | 1003.9 |
| 20260831032704 | 57 | 155 | 3.0 | 7.0 | 0.00 | 0.27 | 0.01 | 96 | 1003.8 |
| 20260831031804 | 57 | 151 | 4.0 | 9.0 | 0.00 | 0.27 | 0.01 | 96 | 1003.8 |
| 20260831030904 | 57 | 154 | 3.0 | 6.0 | 0.00 | 0.27 | 0.01 | 96 | 1003.9 |
| 20260831030004 | 57 | 151 | 3.0 | 6.0 | 0.00 | 0.27 | 0.01 | 96 | 1003.9 |
| 20260831025404 | 57 | 147 | 3.0 | 6.0 | 0.00 | 0.27 | 0.01 | 96 | 1003.9 |
| 20260831024504 | 57 | 161 | 2.0 | 5.0 | 0.00 | 0.27 | 0.01 | 96 | 1004.0 |
| 20260831023604 | 57 | 170 | 2.0 | 6.0 | 0.00 | 0.27 | 0.01 | 96 | 1003.9 |
| 20260831022704 | 57 | 148 | 4.0 | 8.0 | 0.00 | 0.27 | 0.01 | 96 | 1003.9 |
| 20260831021804 | 57 | 161 | 3.0 | 8.0 | 0.00 | 0.27 | 0.01 | 96 | 1003.9 |
| 20260831020904 | 57 | 157 | 3.0 | 8.0 | 0.00 | 0.27 | 0.01 | 96 | 1003.9 |
| 20260831020004 | 57 | 155 | 4.0 | 7.0 | 0.00 | 0.27 | 0.01 | 96 | 1003.8 |
| 20260831015404 | 57 | 159 | 4.0 | 8.0 | 0.00 | 0.27 | 0.01 | 96 | 1003.9 |
| 20260831014504 | 57 | 159 | 4.0 | 8.0 | 0.00 | 0.27 | 0.01 | 96 | 1004.0 |
| 20260831013603 | 57 | 159 | 4.0 | 7.0 | 0.01 | 0.27 | 0.01 | 96 | 1003.9 |
| 20260831012725 | 57 | 156 | 3.0 | 8.0 | 0.01 | 0.27 | 0.01 | 96 | 1003.9 |
| 20260831011804 | 57 | 167 | 5.0 | 9.0 | 0.01 | 0.27 | 0.01 | 96 | 1004.0 |
| 20260831010904 | 57 | 169 | 3.0 | 8.0 | 0.01 | 0.27 | 0.01 | 96 | 1003.9 |
| 20260831010004 | 57 | 137 | 2.0 | 4.0 | 0.01 | 0.27 | 0.01 | 96 | 1003.9 |
| 20260831005404 | 57 | 137 | 1.0 | 3.0 | 0.01 | 0.27 | 0.01 | 96 | 1003.9 |
| 20260831004525 | 57 | 137 | 1.0 | 3.0 | 0.01 | 0.27 | 0.01 | 96 | 1003.9 |
| 20260831003604 | 57 | 137 | 1.0 | 2.0 | 0.00 | 0.26 | 0.00 | 96 | 1003.9 |
| 20260831002704 | 58 | 137 | 2.0 | 3.0 | 0.00 | 0.26 | 0.00 | 96 | 1003.9 |
| 20260831001804 | 58 | 137 | 2.0 | 4.0 | 0.00 | 0.26 | 0.00 | 96 | 1003.9 |
| 20260831000904 | 58 | 137 | 2.0 | 3.0 | 0.00 | 0.26 | 0.00 | 96 | 1004.0 |
| 20260831000004 | 58 | 137 | 2.0 | 4.0 | 0.00 | 0.26 | 0.00 | 96 | 1003.9 |
| 20260830235404 | 58 | 137 | 1.0 | 3.0 | 0.00 | 0.26 | 0.00 | 96 | 1003.9 |
| 20260830234525 | 58 | 137 | 1.0 | 3.0 | 0.00 | 0.26 | 0.00 | 96 | 1003.9 |
| 20260830233604 | 58 | 137 | 1.0 | 4.0 | 0.00 | 0.26 | 0.00 | 96 | 1003.9 |
| 20260830232704 | 58 | 137 | 2.0 | 4.0 | 0.00 | 0.26 | 0.00 | 96 | 1003.9 |
| 20260830231804 | 58 | 137 | 2.0 | 4.0 | 0.00 | 0.26 | 0.00 | 96 | 1004.0 |
| 20260830230904 | 58 | 137 | 2.0 | 4.0 | 0.00 | 0.26 | 0.00 | 96 | 1004.0 |
| 20260830230004 | 58 | 137 | 2.0 | 3.0 | 0.00 | 0.26 | 0.00 | 96 | 1004.0 |
| 20260830225404 | 58 | 137 | 2.0 | 3.0 | 0.00 | 0.26 | 0.00 | 96 | 1004.0 |
| 20260830224503 | 58 | 137 | 2.0 | 4.0 | 0.00 | 0.26 | 0.00 | 96 | 1003.9 |
| 20260830223625 | 58 | 137 | 2.0 | 4.0 | 0.00 | 0.26 | 0.00 | 96 | 1003.9 |
| 20260830222704 | 58 | 137 | 2.0 | 4.0 | 0.00 | 0.26 | 0.00 | 96 | 1003.9 |
| 20260830221804 | 58 | 136 | 2.0 | 4.0 | 0.00 | 0.26 | 0.00 | 96 | 1003.9 |
| 20260830220904 | 58 | 136 | 2.0 | 4.0 | 0.00 | 0.26 | 0.00 | 95 | 1003.9 |
| 20260830220004 | 58 | 151 | 2.0 | 5.0 | 0.00 | 0.26 | 0.00 | 96 | 1003.9 |
| 20260830215404 | 58 | 166 | 3.0 | 5.0 | 0.00 | 0.26 | 0.00 | 95 | 1003.8 |
| 20260830214504 | 59 | 164 | 3.0 | 5.0 | 0.00 | 0.26 | 0.00 | 95 | 1003.9 |
| 20260830213625 | 59 | 165 | 3.0 | 7.0 | 0.00 | 0.26 | 0.00 | 95 | 1003.9 |
| 20260830212703 | 59 | 171 | 3.0 | 7.0 | 0.00 | 0.26 | 0.00 | 96 | 1004.0 |
| 20260830211803 | 59 | 173 | 4.0 | 7.0 | 0.00 | 0.26 | 0.00 | 96 | 1004.0 |
| 20260830210904 | 59 | 166 | 5.0 | 8.0 | 0.00 | 0.26 | 0.00 | 96 | 1003.9 |
| 20260830210026 | 59 | 169 | 4.0 | 8.0 | 0.00 | 0.26 | 0.00 | 95 | 1003.8 |
| 20260830205403 | 59 | 169 | 4.0 | 7.0 | 0.00 | 0.26 | 0.26 | 95 | 1003.8 |
| 20260830204525 | 59 | 157 | 5.0 | 9.0 | 0.00 | 0.26 | 0.26 | 95 | 1003.8 |
| 20260830203603 | 59 | 160 | 4.0 | 9.0 | 0.00 | 0.26 | 0.26 | 95 | 1003.7 |
| 20260830202725 | 59 | 156 | 5.0 | 9.0 | 0.01 | 0.26 | 0.26 | 95 | 1003.7 |
| 20260830201824 | 59 | 158 | 6.0 | 10.0 | 0.05 | 0.26 | 0.26 | 95 | 1003.6 |
| 20260830200903 | 59 | 148 | 5.0 | 10.0 | 0.06 | 0.26 | 0.26 | 95 | 1003.6 |
| 20260830200004 | 59 | 149 | 5.0 | 11.0 | 0.10 | 0.26 | 0.26 | 95 | 1003.6 |
| 20260830195403 | 59 | 150 | 5.0 | 11.0 | 0.11 | 0.26 | 0.26 | 95 | 1003.6 |
| 20260830194525 | 59 | 149 | 6.0 | 11.0 | 0.14 | 0.26 | 0.26 | 95 | 1003.6 |
| 20260830193603 | 59 | 145 | 5.0 | 9.0 | 0.15 | 0.26 | 0.26 | 94 | 1003.6 |
| 20260830192703 | 59 | 148 | 6.0 | 11.0 | 0.15 | 0.25 | 0.25 | 94 | 1003.6 |
| 20260830191824 | 59 | 141 | 6.0 | 10.0 | 0.11 | 0.20 | 0.20 | 94 | 1003.6 |
| 20260830190903 | 59 | 140 | 6.0 | 11.0 | 0.10 | 0.19 | 0.19 | 93 | 1003.5 |
| 20260830190004 | 59 | 142 | 6.0 | 10.0 | 0.06 | 0.15 | 0.15 | 93 | 1003.6 |
| 20260830185403 | 59 | 142 | 5.0 | 11.0 | 0.05 | 0.14 | 0.14 | 93 | 1003.6 |
| 20260830184504 | 60 | 145 | 4.0 | 8.0 | 0.02 | 0.11 | 0.11 | 92 | 1003.6 |
| 20260830183604 | 60 | 147 | 4.0 | 8.0 | 0.01 | 0.10 | 0.10 | 92 | 1003.7 |
| 20260830182704 | 60 | 148 | 5.0 | 8.0 | 0.00 | 0.09 | 0.09 | 92 | 1003.7 |
| 20260830181803 | 60 | 149 | 5.0 | 10.0 | 0.00 | 0.09 | 0.09 | 91 | 1003.7 |
| 20260830180904 | 60 | 150 | 6.0 | 10.0 | 0.00 | 0.09 | 0.09 | 91 | 1003.7 |
| 20260830180004 | 60 | 147 | 5.0 | 8.0 | 0.00 | 0.09 | 0.09 | 91 | 1003.7 |
| 20260830175425 | 60 | 147 | 5.0 | 10.0 | 0.00 | 0.09 | 0.09 | 91 | 1003.7 |